Regional Weather Roundup
Issued by NWS

Home | Current Version | Previous Version | Graphics & Text | Print | Product List | Glossary On
Versions: 1 2 3 4 5 6 7 8 9 10 11 12 13 14 15 16 17 18 19 20 21 22 23 24 25 26 27 28 29 30 31 32 33 34 35 36 37 38 39 40 41 42 43 44 45 46 47 48 49 50
000
ASUS43 KLOT 242300
RWRIL

ILLINOIS REGIONAL WEATHER ROUNDUP
NATIONAL WEATHER SERVICE CHICAGO/ROMEOVILLE IL
500 PM CST MON NOV 24 2014

NOTE: "FAIR" INDICATES FEW OR NO CLOUDS BELOW 12,000 FEET WITH NO
SIGNIFICANT WEATHER AND/OR OBSTRUCTIONS TO VISIBILITY.

* THESE STATIONS ARE NOT UNDER NWS QUALITY CONTROL. THEY ALSO MAY NOT
  REPORT WEATHER SUCH AS PRECIPITATION OR FOG.

ILZ001-002-007-009-015-016-024-250000-
NORTHWEST ILLINOIS

CITY           SKY/WX    TMP DP  RH WIND       PRES   REMARKS
MOLINE         CLOUDY    27  21  78 W22G32    29.71R WCI  13
STERLING*      CLOUDY   N/A N/A N/A W22G29    29.66R
$$

ILZ003-004-008-010-011-017-018-250000-
NORTH CENTRAL ILLINOIS

CITY           SKY/WX    TMP DP  RH WIND       PRES   REMARKS
ROCKFORD       CLOUDY    26  22  84 W16G23    29.61R WCI  14
$$

ILZ005-006-012>014-019>023-250000-
NORTHEAST ILLINOIS

CITY           SKY/WX    TMP DP  RH WIND       PRES   REMARKS
CHICAGO-OHARE  FLURRIES  28  23  81 W21G40    29.58R WCI  15
CHICAGO-MIDWAY CLOUDY    31  25  78 W29G39    29.61R WCI  16
AURORA         CLOUDY    29  23  78 W24G32    29.63R WCI  15
WAUKEGAN       LGT SNOW  27  24  89 SW12G26   29.52R FOG     WCI  17
DUPAGE AIRPORT MIX PCPN  27  22  81 W22G32    29.61R WCI  13
WHEELING       FLURRIES  28  23  81 SW17G29   29.59R WCI  16
NORTHERLY ISL    N/A     30  26  85 W16         N/A  WCI  19
$$

LMZ740>746-250000-
SOUTHERN LAKE MICHIGAN

STATION/POSITION SKY/WX   TEMP    WIND        PRES    VSBY  WAVE
                          AIR SEA DIR/SP/G                  HT/PER
                          (F)     (DEG/KT/KT) (MB)    (MI)  (FT/S)
SOUTHERN BUOY              34 42  240/ 33/ 39  995.9R        10/ 7
WAUKEGAN HARBOR            28     250/ 23/ 30   N/A
HARRISON CRIB              30     240/ 29/ 39   N/A
BURNHAM HARBOR             31     280/ 16/ 22   N/A
CALUMET HARBOR             31     220/ 17/ 26 1000.7R
MICHIGAN CITY              33     220/ 38/ 44   N/A
$$

ILZ025>027-034>036-040-047-049-050-058-095>099-250000-
WEST-CENTRAL ILLINOIS

CITY           SKY/WX    TMP DP  RH WIND       PRES   REMARKS
QUINCY         CLOUDY    32  24  72 W14G21    29.81R WCI  22
$$

ILZ028>032-037-038-041>044-048-051>054-059>061-250000-
CENTRAL ILLINOIS

CITY           SKY/WX    TMP DP  RH WIND       PRES   REMARKS
DECATUR        CLOUDY    36  27  69 W16G24    29.79R WCI  26
PEORIA         CLOUDY    31  24  75 W22G29    29.76R WCI  18
SPRINGFIELD    CLOUDY    35  27  72 W17       29.79R WCI  25
TAYLORVILLE    NOT AVBL
$$

ILZ033-039-045-046-055>057-062-063-250000-
EAST-CENTRAL ILLINOIS

CITY           SKY/WX    TMP DP  RH WIND       PRES   REMARKS
CHAMPAIGN      CLOUDY    34  28  79 W22G32    29.77R WCI  22
MATTOON        CLOUDY    37  27  67 W15G24    29.79R WCI  28
$$

ILZ079-100>102-250000-
SOUTHWEST ILLINOIS

CITY           SKY/WX    TMP DP  RH WIND       PRES   REMARKS
ALTON          CLOUDY    37  28  70 W13       29.84R WCI  29
BELLEVILLE     CLOUDY    40  28  63 W10       29.85R
CAHOKIA*       CLOUDY    41  28  60 W9        29.86R
$$

ILZ064>066-069>071-074>076-080>082-084>086-088>090-092>094-250000-
SOUTH-CENTRAL ILLINOIS

CITY           SKY/WX    TMP DP  RH WIND       PRES   REMARKS
CARBONDALE     MOCLDY    47  28  47 W7        29.86R
MARION         MOCLDY    48  30  49 W9        29.87R
MT. VERNON     CLEAR     41  27  56 W7        29.86R
$$

ILZ067-068-072-073-078-083-087-091-250000-
SOUTHEAST ILLINOIS

CITY           SKY/WX    TMP DP  RH WIND       PRES   REMARKS
LAWRENCEVILLE  MOCLDY    41  30  65 W12       29.85R
$$

ABBREVIATIONS USED IN REMARKS
   TC - TEMPERATURE IN CELSIUS
  WCI - WIND CHILL INDEX
   HX - HEAT INDEX
  VSB - VISIBILITY
$$




USA.gov is the U.S. government's official web portal to all federal, state and local government web resources and services.